Regional Weather Roundup
Issued by NWS

Home | Current Version | Previous Version | Text Only | Print | Product List | Glossary On
Versions: 1 2 3 4 5 6 7 8 9 10 11 12 13 14 15 16 17 18 19 20 21 22 23 24 25 26 27 28 29 30 31 32 33 34 35 36 37 38 39 40 41 42 43 44 45 46 47 48 49 50
000
ASUS44 KFWD 221115
RWRTX
NORTH TEXAS HOURLY WEATHER ROUNDUP
NATIONAL WEATHER SERVICE FORT WORTH TX
600 AM CDT FRI AUG 22 2014

NOTE: "FAIR" INDICATES FEW OR NO CLOUDS BELOW 12,000 FEET WITH NO
SIGNIFICANT WEATHER AND/OR OBSTRUCTIONS TO VISIBILITY.

TXZ118-119-221200-
DALLAS/FORT WORTH METROPLEX

CITY           SKY/WX    TMP DP  RH WIND       PRES   REMARKS
DFW AIRPORT    PTCLDY    81  73  76 S16       30.02R
DALLAS LOVE    PTCLDY    80  73  79 S13       30.03R
FTW MEACHAM    CLEAR     81  73  76 S12       30.01R
DAL-EXECUTIVE  CLEAR     80  73  79 S8        30.03R
FTW-ALLIANCE   CLEAR     80  73  79 S9        30.01R
FTW-NAS-JRB    CLEAR     82  71  69 S10       30.05R
FTW-SPINKS     CLEAR     79  73  81 S10G16    30.04R
ARLINGTON      CLEAR     80  73  79 S9        30.02R
GRAND PRAIRIE  CLEAR     80  71  75 SE8       30.04R
ADDISON        CLEAR     81  72  74 S10G21    30.03S
LANCASTER      CLEAR     78  71  80 S6        30.04S
$$

TXZ091>094-102>105-117-120-121-131>134-221200-
NORTH CENTRAL TEXAS

CITY           SKY/WX    TMP DP  RH WIND       PRES   REMARKS
SHRMAN/DENISON CLEAR     78  70  74 S10       30.02S
GAINESVILLE    CLEAR     77  70  79 S5        30.04R
BOWIE          CLEAR     77  69  75 SE6       30.01S
BRIDGEPORT     CLEAR     81  68  66 S5        30.03R
DECATUR        CLEAR     79  69  73 S9        30.03R
DENTON         CLEAR     80  72  76 S12       30.01R
MCKINNEY       CLEAR     80  72  76 S12       30.02R
GREENVILLE     CLEAR     77  70  78 S8        30.04S
ROCKWALL       PTCLDY    78  73  84 S10G20    30.03S
TERRELL        PTCLDY    79  75  87 S8        30.05S
WAXAHACHIE     PTCLDY    77  71  81 S7        30.05R
CLEBURNE       CLEAR     79  75  89 S10       30.05R
GRANBURY       CLEAR     81  72  72 S12       30.04R
$$

TXZ083>090-098>101-113>116-127>130-139>142-154-155-221200-
WESTERN NORTH TEXAS

CITY           SKY/WX    TMP DP  RH WIND       PRES   REMARKS
WICHITA FALLS  CLEAR     79  64  60 S10       29.97R
WF-KICKAPOO    CLEAR     77  63  61 S3        29.99R
VERNON         CLEAR     80  61  51 S12       29.97S
ABILENE        CLEAR     79  70  74 S13       30.03R
ABILENE-DYESS  CLEAR     78  69  74 S14       30.02R
BRECKENRIDGE   CLEAR     82  69  65 S13G21    30.01R
GRAHAM         CLEAR     81  70  68 S8        29.99R
MINERAL WELLS  CLEAR     80  71  74 S9        30.01R
STEPHENVILLE   CLEAR     78  70  76 S7        30.08R
COMANCHE       CLEAR     77  71  81 S13G20    30.04S
BROWNWOOD      MOCLDY    77  70  78 S9        30.05S
COLEMAN        CLEAR     76  69  78 S9        30.06R
BRADY          CLEAR     75  70  83 SE7       30.06R
$$

TXZ143>147-156>162-174-175-221200-
CENTRAL TEXAS

CITY           SKY/WX    TMP DP  RH WIND       PRES   REMARKS
WACO           CLEAR     79  73  82 S15       30.04R
WACO-MCGREGOR  CLEAR     79  70  73 S9        30.06R
HILLSBORO      CLEAR     79  72  78 S13       30.04R
CORSICANA      PTCLDY    79  73  82 S9        30.06R
MEXIA          PTCLDY    76  74  92 S7        30.05S
HEARNE           N/A     78  74  88 CALM      30.06S
CAMERON        PTCLDY    79  74  84 S6        30.06R
TEMPLE         PTCLDY    77  70  78 S9        30.05R
KILLEEN        PTCLDY    77  72  83 S10       30.05R
KILLEEN-SKYLRK CLEAR     79  68  69 S10       30.04R
FORT HOOD      CLEAR     79  72  79 SE5       30.06R
GATESVILLE     PTCLDY    79  72  78 S6        30.07R
HAMILTON       CLEAR     77  70  79 S9G18     30.06R
LAMPASAS       CLEAR     77  73  87 S7        30.05R
$$

TXZ095>097-106>112-122>126-135>138-148>153-164>167-221200-
EAST TEXAS

CITY           SKY/WX    TMP DP  RH WIND       PRES   REMARKS
PARIS          CLEAR     75  66  73 S8        30.04R
SULPHUR SPRNGS CLEAR     78  71  78 S9        30.06R
CLARKSVILLE    CLOUDY    77  73  90 S5        30.03S
MOUNT PLEASANT CLEAR     75  73  92 S6        30.06S
GILMER         CLEAR     75  75 100 S3        30.07S
MINEOLA        CLEAR     79  73  83 S6        30.06R
TYLER          MOCLDY    77  73  88 S9        30.06S
LONGVIEW       CLEAR     74  71  91 S3        30.06R
MARSHALL       PTCLDY    76  73  91 S3        30.09R
ATHENS         CLOUDY    73  72  94 CALM      30.06R
PALESTINE      MOCLDY    76  74  93 S5        30.08R
JACKSONVILLE   CLOUDY    75  74  95 S9        30.09S
HENDERSON      PTCLDY    74  74  99 CALM      30.08R
NACOGDOCHES    CLOUDY    73  73 100 S5        30.08R
LUFKIN         CLOUDY    75  72  90 SE3       30.08R FOG
$$

SUPPLEMENTAL OBSERVATIONS (CENTRAL)

CITY           SKY/WX    TMP DP  RH WIND       PRES   REMARKS
LAKE TEXOMA      N/A     79  68  69 S7          N/A
CADDO GRASSLND   N/A     79  70  73 S12         N/A
PAT MAYSE LAKE   N/A     79  72  78 S13         N/A
GREENVILLE       N/A     79  72  78 S8          N/A
CEDAR HILL       N/A     79  72  78 S8          N/A
PALESTINE        N/A     77  72  83 SW5         N/A
MCGREGOR         N/A     77  72  83 S8          N/A
TEMPLE           N/A     77  72  83 S7          N/A
$$

SUPPLEMENTAL OBSERVATIONS (WEST)

CITY           SKY/WX    TMP DP  RH WIND       PRES   REMARKS
MILLERS CREEK    N/A     81  63  54 S12         N/A
POSSUM KINGDOM   N/A     81  70  69 S7G15       N/A
LBJ GRASSLAND    N/A     79  68  69 SE8         N/A
GRANBURY         N/A     81  72  74 S12         N/A
HAMBY            N/A     79  68  69 S14         N/A
$$

SUPPLEMENTAL OBSERVATIONS (EAST)

CITY           SKY/WX    TMP DP  RH WIND       PRES   REMARKS
TEXARKANA        N/A     73  70  88 S1          N/A
LINDEN           N/A     73  70  88 S1          N/A
LUFKIN           N/A     75  73  94 MISG        N/A
N SABINE NF      N/A     73  72  94 MISG        N/A
$$

SUPPLEMENTAL OBSERVATIONS ARE A COLLECTION OF AUTOMATED INSTRUMENTS
THAT ARE MAINTAINED BY A VARIETY OF FEDERAL AND STATE AGENCIES.
CERTAIN ELEMENTS...SUCH AS HUMIDITY VALUES AND SUSTAINED WIND
SPEEDS...MAY BE APPROXIMATED.



USA.gov is the U.S. government's official web portal to all federal, state and local government web resources and services.